When you browse on this site, cookies collect data to enhance your experience and personalize the content and advertising you see.
Visit our Privacy Policy to learn more. By continuing to use the site, you agree to this use of cookies and data.
EN

Hourly Weather Livingstone

Today, 6 August, Thursday

Time Temperature Precipitation Wind Pressure Humidity
00:00 +16°C° 0 mm 1 mps 684 mmHg 42%
01:00 +15°C° 0 mm 1 mps 684 mmHg 44%
02:00 +14°C° 0 mm 0 mps 684 mmHg 49%
03:00 +13°C° 0 mm 0 mps 684 mmHg 50%
04:00 +12°C° 0 mm 0 mps 683 mmHg 51%
05:00 +12°C° 0 mm 0 mps 683 mmHg 52%
06:00 +13°C° 0 mm 0 mps 684 mmHg 47%
07:00 +15°C° 0 mm 0 mps 685 mmHg 42%
08:00 +16°C° 0 mm 0 mps 686 mmHg 37%
09:00 +21°C° 0 mm 0 mps 686 mmHg 30%
10:00 +25°C° 0 mm 0 mps 687 mmHg 22%
11:00 +32°C° 0 mm 1 mps 688 mmHg 15%
12:00 +33°C° 0 mm 1 mps 687 mmHg 13%
13:00 +33°C° 0 mm 1 mps 686 mmHg 12%
14:00 +34°C° 0 mm 1 mps 685 mmHg 10%
15:00 +33°C° 0 mm 1 mps 685 mmHg 10%
16:00 +32°C° 0 mm 1 mps 684 mmHg 10%
17:00 +31°C° 0 mm 2 mps 684 mmHg 11%
18:00 +28°C° 0 mm 1 mps 684 mmHg 14%
19:00 +24°C° 0 mm 1 mps 684 mmHg 17%
20:00 +19°C° 0 mm 0 mps 684 mmHg 20%
21:00 +20°C° 0 mm 1 mps 684 mmHg 22%
22:00 +19°C° 0 mm 1 mps 684 mmHg 24%
23:00 +16°C° 0 mm 1 mps 685 mmHg 26%

Tomorrow, 7 August, Friday

Time Temperature Precipitation Wind Pressure Humidity
00:00 +16°C° 0 mm 1 mps 684 mmHg 26%
01:00 +15°C° 0 mm 1 mps 684 mmHg 26%
02:00 +14°C° 0 mm 1 mps 684 mmHg 25%
03:00 +14°C° 0 mm 1 mps 684 mmHg 25%
04:00 +13°C° 0 mm 1 mps 684 mmHg 25%
05:00 +13°C° 0 mm 1 mps 684 mmHg 25%
06:00 +14°C° 0 mm 1 mps 685 mmHg 23%
07:00 +16°C° 0 mm 1 mps 685 mmHg 22%
08:00 +18°C° 0 mm 1 mps 686 mmHg 20%
09:00 +21°C° 0 mm 2 mps 687 mmHg 17%
10:00 +26°C° 0 mm 2 mps 687 mmHg 14%
11:00 +29°C° 0 mm 3 mps 688 mmHg 11%
12:00 +30°C° 0 mm 3 mps 687 mmHg 10%
13:00 +33°C° 0 mm 3 mps 687 mmHg 9%
14:00 +34°C° 0 mm 3 mps 686 mmHg 8%
15:00 +33°C° 0 mm 3 mps 686 mmHg 9%
16:00 +33°C° 0 mm 3 mps 685 mmHg 9%
17:00 +31°C° 0 mm 3 mps 685 mmHg 9%
18:00 +28°C° 0 mm 3 mps 685 mmHg 13%
19:00 +25°C° 0 mm 2 mps 685 mmHg 17%
20:00 +20°C° 0 mm 2 mps 685 mmHg 20%
21:00 +20°C° 0 mm 3 mps 685 mmHg 25%
22:00 +19°C° 0 mm 3 mps 686 mmHg 30%
23:00 +18°C° 0 mm 4 mps 686 mmHg 35%

Day after tomorrow, 8 August, Saturday

Time Temperature Precipitation Wind Pressure Humidity
00:00 +18°C° 0 mm 4 mps 686 mmHg 45%
01:00 +17°C° 0 mm 4 mps 686 mmHg 56%
02:00 +15°C° 0 mm 4 mps 686 mmHg 66%
03:00 +14°C° 0 mm 4 mps 686 mmHg 70%
04:00 +14°C° 0 mm 4 mps 686 mmHg 74%
05:00 +13°C° 0 mm 3 mps 686 mmHg 78%
06:00 +14°C° 0 mm 4 mps 687 mmHg 75%
07:00 +15°C° 0 mm 4 mps 687 mmHg 73%
08:00 +15°C° 0 mm 5 mps 688 mmHg 70%
09:00 +19°C° 0 mm 5 mps 688 mmHg 61%
10:00 +21°C° 0 mm 5 mps 689 mmHg 52%
11:00 +25°C° 0 mm 4 mps 689 mmHg 43%
12:00 +27°C° 0 mm 4 mps 688 mmHg 38%
13:00 +29°C° 0 mm 4 mps 688 mmHg 33%
14:00 +30°C° 0 mm 4 mps 687 mmHg 28%
15:00 +30°C° 0 mm 4 mps 686 mmHg 27%
16:00 +29°C° 0 mm 4 mps 686 mmHg 27%
17:00 +29°C° 0 mm 4 mps 685 mmHg 27%
18:00 +26°C° 0 mm 3 mps 685 mmHg 35%
19:00 +22°C° 0 mm 3 mps 685 mmHg 43%
20:00 +19°C° 0 mm 2 mps 685 mmHg 51%
21:00 +18°C° 0 mm 2 mps 685 mmHg 54%
22:00 +17°C° 0 mm 2 mps 685 mmHg 57%
23:00 +16°C° 0 mm 1 mps 685 mmHg 60%

9 August, Sunday

Time Temperature Precipitation Wind Pressure Humidity
00:00 +16°C° 0 mm 1 mps 685 mmHg 62%
01:00 +15°C° 0 mm 1 mps 684 mmHg 64%
02:00 +15°C° 0 mm 1 mps 684 mmHg 65%
03:00 +14°C° 0 mm 1 mps 684 mmHg 68%
04:00 +14°C° 0 mm 2 mps 684 mmHg 70%
05:00 +13°C° 0 mm 2 mps 684 mmHg 73%
06:00 +14°C° 0 mm 2 mps 684 mmHg 71%
07:00 +15°C° 0 mm 2 mps 685 mmHg 68%
08:00 +16°C° 0 mm 2 mps 686 mmHg 66%
09:00 +19°C° 0 mm 2 mps 686 mmHg 54%
10:00 +24°C° 0 mm 2 mps 686 mmHg 42%
11:00 +28°C° 0 mm 2 mps 687 mmHg 30%
12:00 +29°C° 0 mm 3 mps 686 mmHg 25%
13:00 +30°C° 0 mm 3 mps 686 mmHg 20%
14:00 +33°C° 0 mm 3 mps 685 mmHg 15%
15:00 +31°C° 0 mm 3 mps 684 mmHg 17%
16:00 +30°C° 0 mm 3 mps 684 mmHg 18%
17:00 +30°C° 0 mm 3 mps 684 mmHg 19%
18:00 +27°C° 0 mm 3 mps 684 mmHg 25%
19:00 +24°C° 0 mm 2 mps 684 mmHg 30%
20:00 +20°C° 0 mm 2 mps 683 mmHg 36%
21:00 +19°C° 0 mm 2 mps 684 mmHg 38%
22:00 +19°C° 0 mm 1 mps 684 mmHg 40%
23:00 +18°C° 0 mm 1 mps 684 mmHg 42%

10 August, Monday

Time Temperature Precipitation Wind Pressure Humidity
00:00 +16°C° 0 mm 1 mps 683 mmHg 44%
01:00 +16°C° 0 mm 1 mps 683 mmHg 47%
02:00 +15°C° 0 mm 1 mps 683 mmHg 49%
03:00 +14°C° 0 mm 1 mps 683 mmHg 51%
04:00 +14°C° 0 mm 1 mps 682 mmHg 52%
05:00 +14°C° 0 mm 1 mps 682 mmHg 54%
06:00 +15°C° 0 mm 1 mps 683 mmHg 49%
07:00 +16°C° 0 mm 0 mps 684 mmHg 44%
08:00 +18°C° 0 mm 0 mps 685 mmHg 39%
09:00 +24°C° 0 mm 1 mps 686 mmHg 31%
10:00 +27°C° 0 mm 2 mps 686 mmHg 22%
11:00 +31°C° 0 mm 3 mps 687 mmHg 14%
12:00 +33°C° 0 mm 4 mps 686 mmHg 12%
13:00 +34°C° 0 mm 4 mps 685 mmHg 11%
14:00 +34°C° 0 mm 4 mps 684 mmHg 10%
15:00 +34°C° 0 mm 3 mps 684 mmHg 10%
16:00 +33°C° 0 mm 3 mps 684 mmHg 10%
17:00 +32°C° 0 mm 2 mps 683 mmHg 10%
18:00 +28°C° 0 mm 2 mps 683 mmHg 14%
19:00 +25°C° 0 mm 1 mps 683 mmHg 17%
20:00 +21°C° 0 mm 1 mps 683 mmHg 21%
21:00 +20°C° 0 mm 1 mps 683 mmHg 22%
22:00 +19°C° 0 mm 1 mps 683 mmHg 23%
23:00 +16°C° 0 mm 0 mps 683 mmHg 24%

11 August, Tuesday

Time Temperature Precipitation Wind Pressure Humidity
00:00 +18°C° 0 mm 1 mps 683 mmHg 25%
01:00 +16°C° 0 mm 1 mps 683 mmHg 25%
02:00 +15°C° 0 mm 1 mps 683 mmHg 26%
03:00 +14°C° 0 mm 1 mps 683 mmHg 27%
04:00 +14°C° 0 mm 1 mps 683 mmHg 29%
05:00 +13°C° 0 mm 2 mps 683 mmHg 30%
06:00 +15°C° 0 mm 2 mps 684 mmHg 29%
07:00 +16°C° 0 mm 3 mps 685 mmHg 29%
08:00 +18°C° 0 mm 3 mps 686 mmHg 28%
09:00 +21°C° 0 mm 3 mps 687 mmHg 24%
10:00 +26°C° 0 mm 3 mps 687 mmHg 20%
11:00 +29°C° 0 mm 3 mps 688 mmHg 17%
12:00 +30°C° 0 mm 3 mps 687 mmHg 15%
13:00 +33°C° 0 mm 3 mps 686 mmHg 13%
14:00 +34°C° 0 mm 3 mps 686 mmHg 11%
15:00 +34°C° 0 mm 3 mps 685 mmHg 12%
16:00 +33°C° 0 mm 4 mps 685 mmHg 12%
17:00 +32°C° 0 mm 4 mps 684 mmHg 13%
18:00 +28°C° 0 mm 3 mps 684 mmHg 18%
19:00 +24°C° 0 mm 3 mps 684 mmHg 23%
20:00 +20°C° 0 mm 2 mps 684 mmHg 28%
21:00 +19°C° 0 mm 2 mps 684 mmHg 30%
22:00 +18°C° 0 mm 2 mps 684 mmHg 32%
23:00 +18°C° 0 mm 1 mps 684 mmHg 35%
Show more